Time,TemperatureF,DewpointF,PressureIn,WindDirection,WindDirectionDegrees,WindSpeedMPH,WindSpeedGustMPH,Humidity,HourlyPrecipIn,Conditions,Clouds,dailyrainin,SolarRadiationWatts/m^2,SoftwareType,DateUTC
2013-05-21 00:11:00,74.3,71.0,30.08,ESE,119,0.0,-999.0,88,-99.99,,,0.00,0,weatherlink.com 1.10,2013-05-21 04:11:00,
2013-05-21 00:26:00,74.1,70.0,30.07,ESE,119,4.0,-999.0,88,-99.99,,,0.01,0,weatherlink.com 1.10,2013-05-21 04:26:00,
2013-05-21 00:41:00,74.0,70.0,30.06,ESE,119,8.0,-999.0,88,-99.99,,,0.01,0,weatherlink.com 1.10,2013-05-21 04:41:00,
2013-05-21 00:56:00,75.3,72.0,30.05,ESE,119,2.0,-999.0,88,-99.99,,,0.01,0,weatherlink.com 1.10,2013-05-21 04:56:00,
2013-05-21 01:11:00,74.5,71.0,30.05,ESE,119,6.0,-999.0,87,-99.99,,,0.01,0,weatherlink.com 1.10,2013-05-21 05:11:00,
2013-05-21 01:26:00,76.6,72.0,30.04,ESE,119,4.0,-999.0,86,-99.99,,,0.01,0,weatherlink.com 1.10,2013-05-21 05:26:00,
2013-05-21 01:41:00,77.4,72.0,30.04,ESE,119,5.0,-999.0,83,-99.99,,,0.01,0,weatherlink.com 1.10,2013-05-21 05:41:00,
2013-05-21 01:56:00,75.2,71.0,30.03,ESE,119,4.0,-999.0,86,-99.99,,,0.01,0,weatherlink.com 1.10,2013-05-21 05:56:00,
2013-05-21 02:11:00,73.4,71.0,30.03,ESE,119,6.0,-999.0,91,-99.99,,,0.01,0,weatherlink.com 1.10,2013-05-21 06:11:00,
2013-05-21 02:26:00,73.1,71.0,30.03,ESE,119,6.0,-999.0,92,-99.99,,,0.01,0,weatherlink.com 1.10,2013-05-21 06:26:00,
2013-05-21 02:41:00,72.9,71.0,30.03,ESE,119,5.0,-999.0,93,-99.99,,,0.01,0,weatherlink.com 1.10,2013-05-21 06:41:00,
2013-05-21 02:56:00,73.3,72.0,30.02,ESE,119,1.0,-999.0,94,-99.99,,,0.01,0,weatherlink.com 1.10,2013-05-21 06:56:00,
2013-05-21 03:11:00,73.5,72.0,30.03,ESE,119,8.0,-999.0,94,-99.99,,,0.01,0,weatherlink.com 1.10,2013-05-21 07:11:00,
2013-05-21 03:26:00,73.9,72.0,30.04,ESE,119,6.0,-999.0,94,-99.99,,,0.01,0,weatherlink.com 1.10,2013-05-21 07:26:00,
2013-05-21 03:41:00,73.9,72.0,30.04,ESE,119,6.0,-999.0,93,-99.99,,,0.01,0,weatherlink.com 1.10,2013-05-21 07:41:00,
2013-05-21 03:56:00,74.5,73.0,30.04,ESE,119,5.0,-999.0,94,-99.99,,,0.01,0,weatherlink.com 1.10,2013-05-21 07:56:00,
2013-05-21 04:11:00,76.0,73.0,30.04,ESE,119,0.0,-999.0,89,-99.99,,,0.01,0,weatherlink.com 1.10,2013-05-21 08:11:00,
2013-05-21 04:26:00,75.7,72.0,30.04,ESE,119,4.0,-999.0,88,-99.99,,,0.01,0,weatherlink.com 1.10,2013-05-21 08:26:00,
2013-05-21 04:41:00,74.0,71.0,30.04,ESE,119,2.0,-999.0,91,-99.99,,,0.01,0,weatherlink.com 1.10,2013-05-21 08:41:00,
2013-05-21 04:56:00,73.7,72.0,30.04,ESE,119,2.0,-999.0,93,-99.99,,,0.01,0,weatherlink.com 1.10,2013-05-21 08:56:00,
2013-05-21 05:11:00,73.5,71.0,30.05,ESE,119,2.0,-999.0,93,-99.99,,,0.01,0,weatherlink.com 1.10,2013-05-21 09:11:00,
2013-05-21 05:26:00,73.4,72.0,30.05,ESE,119,0.0,-999.0,94,-99.99,,,0.01,0,weatherlink.com 1.10,2013-05-21 09:26:00,
2013-05-21 05:41:00,73.5,72.0,30.05,ESE,119,2.0,-999.0,94,-99.99,,,0.01,0,weatherlink.com 1.10,2013-05-21 09:41:00,
2013-05-21 05:56:00,73.6,72.0,30.05,ESE,119,2.0,-999.0,94,-99.99,,,0.01,0,weatherlink.com 1.10,2013-05-21 09:56:00,
2013-05-21 06:11:00,73.4,72.0,30.06,ESE,119,5.0,-999.0,94,-99.99,,,0.01,0,weatherlink.com 1.10,2013-05-21 10:11:00,
2013-05-21 06:26:00,73.1,71.0,30.06,ESE,119,0.0,-999.0,93,-99.99,,,0.01,0,weatherlink.com 1.10,2013-05-21 10:26:00,
2013-05-21 06:41:00,73.1,71.0,30.06,ESE,119,4.0,-999.0,94,-99.99,,,0.01,5,weatherlink.com 1.10,2013-05-21 10:41:00,
2013-05-21 06:56:00,74.0,71.0,30.07,ESE,119,0.0,-999.0,91,-99.99,,,0.01,11,weatherlink.com 1.10,2013-05-21 10:56:00,
2013-05-21 07:11:00,74.3,71.0,30.07,ESE,119,0.0,-999.0,89,-99.99,,,0.01,26,weatherlink.com 1.10,2013-05-21 11:11:00,
2013-05-21 07:26:00,73.4,71.0,30.07,ESE,119,0.0,-999.0,91,-99.99,,,0.01,53,weatherlink.com 1.10,2013-05-21 11:26:00,
2013-05-21 07:41:00,73.4,71.0,30.08,ESE,119,1.0,-999.0,91,-99.99,,,0.01,65,weatherlink.com 1.10,2013-05-21 11:41:00,
2013-05-21 07:56:00,74.0,72.0,30.09,ESE,119,0.0,-999.0,92,-99.99,,,0.01,74,weatherlink.com 1.10,2013-05-21 11:56:00,
2013-05-21 08:11:00,74.8,72.0,30.09,ESE,119,0.0,-999.0,91,-99.99,,,0.01,223,weatherlink.com 1.10,2013-05-21 12:11:00,
2013-05-21 08:26:00,75.0,72.0,30.09,ESE,119,4.0,-999.0,89,-99.99,,,0.01,257,weatherlink.com 1.10,2013-05-21 12:26:00,
2013-05-21 08:41:00,75.1,72.0,30.09,ESE,119,1.0,-999.0,90,-99.99,,,0.01,169,weatherlink.com 1.10,2013-05-21 12:41:00,
2013-05-21 08:56:00,75.4,72.0,30.09,ESE,119,2.0,-999.0,89,-99.99,,,0.01,364,weatherlink.com 1.10,2013-05-21 12:56:00,
2013-05-21 09:11:00,75.6,72.0,30.09,ESE,119,0.0,-999.0,89,-99.99,,,0.01,411,weatherlink.com 1.10,2013-05-21 13:11:00,
2013-05-21 09:26:00,75.7,72.0,30.09,ESE,119,4.0,-999.0,88,-99.99,,,0.01,385,weatherlink.com 1.10,2013-05-21 13:26:00,
2013-05-21 09:41:00,76.1,72.0,30.09,ESE,119,1.0,-999.0,88,-99.99,,,0.01,501,weatherlink.com 1.10,2013-05-21 13:41:00,
2013-05-21 09:56:00,76.5,72.0,30.09,ESE,119,4.0,-999.0,87,-99.99,,,0.01,557,weatherlink.com 1.10,2013-05-21 13:56:00,
2013-05-21 10:11:00,76.6,72.0,30.09,ESE,119,1.0,-999.0,85,-99.99,,,0.01,204,weatherlink.com 1.10,2013-05-21 14:11:00,
2013-05-21 10:26:00,76.5,72.0,30.09,ESE,119,0.0,-999.0,86,-99.99,,,0.01,394,weatherlink.com 1.10,2013-05-21 14:26:00,
2013-05-21 10:41:00,76.7,71.0,30.10,ESE,119,4.0,-999.0,82,-99.99,,,0.01,413,weatherlink.com 1.10,2013-05-21 14:41:00,
2013-05-21 10:56:00,77.3,71.0,30.10,ESE,119,4.0,-999.0,82,-99.99,,,0.01,501,weatherlink.com 1.10,2013-05-21 14:56:00,
2013-05-21 11:11:00,77.9,71.0,30.09,ESE,119,1.0,-999.0,80,-99.99,,,0.01,649,weatherlink.com 1.10,2013-05-21 15:11:00,
2013-05-21 11:26:00,79.2,72.0,30.09,ESE,119,2.0,-999.0,78,-99.99,,,0.01,765,weatherlink.com 1.10,2013-05-21 15:26:00,
2013-05-21 11:41:00,80.0,71.0,30.09,ESE,119,1.0,-999.0,75,-99.99,,,0.01,835,weatherlink.com 1.10,2013-05-21 15:41:00,
2013-05-21 12:11:00,81.2,71.0,30.07,ESE,119,1.0,-999.0,72,-99.99,,,0.01,178,weatherlink.com 1.10,2013-05-21 16:11:00,
2013-05-21 12:26:00,84.0,74.0,30.08,NNE,15,10.0,-999.0,72,-99.99,,,0.01,95,weatherlink.com 1.10,2013-05-21 16:26:00,
2013-05-21 12:41:00,77.9,70.0,30.09,NNE,18,9.0,-999.0,76,-99.99,,,0.01,47,weatherlink.com 1.10,2013-05-21 16:41:00,
2013-05-21 12:56:00,76.3,69.0,30.09,NE,55,4.0,-999.0,77,-99.99,,,0.01,37,weatherlink.com 1.10,2013-05-21 16:56:00,
2013-05-21 13:11:00,77.9,70.0,30.09,NNE,24,4.0,-999.0,77,-99.99,,,0.01,56,weatherlink.com 1.10,2013-05-21 17:11:00,
2013-05-21 13:26:00,80.5,71.0,30.08,NNE,13,4.0,-999.0,72,-99.99,,,0.01,56,weatherlink.com 1.10,2013-05-21 17:26:00,
2013-05-21 13:41:00,80.1,70.0,30.08,North,11,3.0,-999.0,72,-99.99,,,0.01,54,weatherlink.com 1.10,2013-05-21 17:41:00,
2013-05-21 13:56:00,79.6,71.0,30.07,NNE,22,5.0,-999.0,75,-99.99,,,0.01,56,weatherlink.com 1.10,2013-05-21 17:56:00,
2013-05-21 14:11:00,78.7,72.0,30.07,NNE,28,1.0,-999.0,79,-99.99,,,0.01,67,weatherlink.com 1.10,2013-05-21 18:11:00,
2013-05-21 14:26:00,76.7,72.0,30.06,NE,37,4.0,-999.0,84,-99.99,,,0.01,77,weatherlink.com 1.10,2013-05-21 18:26:00,
2013-05-21 14:41:00,73.9,71.0,30.06,NE,38,3.0,-999.0,89,-99.99,,,0.01,104,weatherlink.com 1.10,2013-05-21 18:41:00,
2013-05-21 14:57:00,74.0,71.0,30.05,NE,38,2.0,-999.0,91,-99.99,,,0.01,137,weatherlink.com 1.10,2013-05-21 18:57:00,